[[{"header":{"parameterUnit":"m.s-1","parameterCategory":1,"la1":30.2991,"la2":30.254,"lo1":-89.0895,"lo2":-89.0444,"dy":0.0017,"dx":0.0017,"nx":28,"ny":28,"refTime":"2026-01-29T09:00:00:Z","depth":0,"parameterNumber":2,"parameterNumberName":"U-component_of_WINDS"},"data":[0,0,0,0,0,0,0,0,0,0,0,0,0,0,0,0,0,0,0,0,0,0,0,0,0,0,0,0,0,0,0,0,0,0,0,0,0,0,0,0,0,0,0,0,0,0,0,0,0,0,0,0,0,0,0,0,0,0,1.3265,1.3265,0,1.3255,1.3255,1.3255,1.321,1.3209,1.3208,1.3207,1.3196,1.3196,1.3197,0,0,0,0,0,0,0,0,0,0,0,0,0,1.3246,1.3247,1.3265,1.3265,1.3265,1.3255,1.3255,1.3255,1.321,1.3209,1.3208,1.3207,1.3196,1.3196,1.3197,0,0,0,0,0,0,0,0,0,0,0,0,0,1.3247,1.3247,1.3266,1.3242,1.324,1.3255,1.3255,1.3254,1.3211,1.3209,1.3208,1.3206,1.3195,1.3196,1.3197,1.3234,0,0,1.32,1.3201,0,0,0,0,0,0,0,0,1.3247,1.3248,1.3246,1.3244,1.3241,1.3232,1.3244,1.3248,1.3211,1.3222,1.3207,1.3205,1.3209,1.3209,1.321,1.3234,1.3233,1.32,1.3201,1.3201,1.3202,0,0,0,0,0,0,0,1.3247,1.3248,1.3261,1.3246,1.3243,1.3231,1.323,1.3244,1.3224,1.3221,1.3217,1.3217,1.3208,1.3209,1.321,1.3233,1.32,1.3201,1.3202,1.3202,1.3284,1.3285,0,0,0,0,0,0,1.325,1.3248,1.3262,1.3261,1.324,1.3233,1.3231,1.3237,1.3224,1.322,1.3218,1.3215,1.3209,1.3209,1.3209,1.325,1.3201,1.3202,1.3203,1.3282,1.3284,1.3286,0,0,0,0,0,0,1.325,1.3252,1.3262,1.3254,1.3254,1.3235,1.3241,1.3237,1.3239,1.3222,1.3218,1.3224,1.3207,1.3208,1.3228,1.3249,1.3203,1.3204,1.328,1.3283,1.3285,1.3332,0,0,0,0,0,0,1.325,1.3252,1.3266,1.3254,1.3255,1.3281,1.3243,1.3238,1.3241,1.3236,1.3226,1.3223,1.3206,1.3227,1.3229,1.3249,1.3204,1.3278,1.3281,1.3284,1.3329,1.3336,1.3342,0,0,0,0,0,1.3249,1.3281,1.3267,1.3269,1.3272,1.3283,1.3283,1.3263,1.3243,1.3256,1.3245,1.3223,1.3246,1.3229,1.3231,1.3252,1.3277,1.328,1.3284,1.3326,1.3335,1.3342,0,0,0,0,0,0,1.3296,1.3279,1.3264,1.3292,1.3289,1.3275,1.3292,1.3273,1.3276,1.3272,1.3247,1.3245,1.3268,1.3262,1.3243,1.3286,1.3258,1.3262,1.3289,1.3297,1.3304,1.3304,1.3205,0,0,0,0,0,1.331,1.332,1.3304,1.3331,1.333,1.3311,1.3315,1.33,1.3296,1.3295,1.3285,1.3281,1.3288,1.3292,1.3297,1.3328,1.3324,1.3344,1.335,1.3356,1.3359,1.3374,1.3381,1.3297,1.3297,1.3297,0,0,1.3338,1.333,1.3338,1.334,1.3336,1.3346,1.3311,1.3324,1.3331,1.3296,1.3314,1.3307,1.3302,1.3327,1.3337,1.3323,1.3382,1.3361,1.3365,1.3366,1.3378,1.3386,1.3393,1.33,1.3299,1.3299,0,0,1.3394,1.339,1.3411,1.3407,1.3401,1.3388,1.3393,1.3382,1.3376,1.3393,1.3367,1.3375,1.3387,1.3383,1.3383,1.3437,1.3416,1.344,1.3474,1.3488,1.3495,1.3501,1.3518,1.3525,1.3443,1.3443,1.3443,0,1.343,1.3445,1.3424,1.3438,1.3439,1.3408,1.3428,1.3426,1.3422,1.3423,1.3407,1.3419,1.3414,1.3437,1.345,1.3451,1.3455,1.344,1.3496,1.3501,1.3506,1.3523,1.353,1.3446,1.3446,1.3446,1.3445,0,1.3488,1.3499,1.3517,1.3513,1.3516,1.3534,1.3514,1.352,1.3504,1.3493,1.351,1.3502,1.3504,1.3509,1.3494,1.3529,1.352,1.35,1.3471,1.3517,1.3532,1.3539,1.345,1.3449,1.3448,1.3448,0,0,1.3574,1.3557,1.3564,1.3561,1.3552,1.356,1.3575,1.3577,1.3581,1.358,1.3591,1.3601,1.3582,1.3582,1.3567,1.3579,1.362,1.3557,1.3557,1.3568,1.3657,1.367,1.3678,1.3607,1.3608,1.3609,1.3656,0,1.3626,1.3652,1.3632,1.366,1.3669,1.3639,1.3653,1.3648,1.3638,1.3643,1.3632,1.3639,1.3614,1.3614,1.3625,1.3613,1.3637,1.3609,1.3616,1.3616,1.3617,1.3686,1.3701,1.3747,1.3662,1.3663,1.3664,0,1.3691,1.3691,1.372,1.3708,1.3711,1.3723,1.3722,1.3728,1.3722,1.3713,1.3713,1.3693,1.3706,1.3679,1.3696,1.3677,1.3679,1.3673,1.3674,1.3673,1.3642,1.3686,1.3761,1.3767,1.3673,1.3673,1.3672,0,1.3748,1.3756,1.3774,1.3773,1.3759,1.3768,1.3763,1.3755,1.3756,1.3756,1.3756,1.3758,1.3758,1.3759,1.374,1.3722,1.3759,1.373,1.3751,1.3751,1.3759,1.3759,1.3834,1.3763,1.3763,1.3763,1.3763,0,1.3808,1.3827,1.3799,1.381,1.383,1.3807,1.3827,1.3818,1.3811,1.3819,1.3794,1.3802,1.3778,1.3783,1.3768,1.3784,1.3784,1.3777,1.3773,1.3779,1.3779,1.3778,1.3774,1.3764,1.3764,1.3764,1.3763,0,1.3875,1.3858,1.3875,1.386,1.3857,1.3872,1.3858,1.3867,1.3855,1.3866,1.3867,1.3848,1.3853,1.3834,1.3836,1.3826,1.3848,1.384,1.3851,1.3847,1.3869,1.3867,1.3945,1.3954,1.3879,1.3879,1.388,0,1.3913,1.3927,1.3913,1.3917,1.3912,1.3919,1.392,1.3898,1.39,1.3893,1.3903,1.3906,1.3906,1.3915,1.3901,1.3902,1.3892,1.392,1.3892,1.3897,1.3891,1.3889,1.389,1.3925,1.3926,1.3927,1.3927,0,1.3983,1.3974,1.3977,1.3976,1.3979,1.3977,1.3975,1.3979,1.3955,1.3959,1.3963,1.3964,1.3965,1.3967,1.3965,1.3959,1.3939,1.3936,1.3941,1.3946,1.3952,1.3947,1.3865,1.3934,1.3934,1.3933,1.3933,1.3933,1.4036,1.4046,1.4037,1.4041,1.4036,1.4034,1.4041,1.4029,1.4033,1.4032,1.4019,1.4025,1.4017,1.4012,1.4008,1.4012,1.3999,1.4006,1.4008,1.401,1.4013,1.3952,1.4012,1.4012,1.4012,1.4011,1.4011,0,1.4103,1.4096,1.4099,1.4095,1.4098,1.4079,1.4075,1.4078,1.4084,1.4079,1.408,1.4084,1.4086,1.4072,1.4072,1.4078,1.4068,1.4078,1.4077,1.4075,1.4025,1.402,1.4086,1.4086,1.4086,1.4086,1.4086,1.4086,1.4138,1.4153,1.4142,1.4154,1.4147,1.4153,1.4152,1.4149,1.4144,1.415,1.4151,1.4142,1.4133,1.4131,1.4132,1.4128,1.4128,1.4141,1.4134,1.4087,1.4079,1.4072,1.4068,1.4142,1.4142,1.4183,1.4183,1.4184]},{"header":{"parameterUnit":"m.s-1","parameterCategory":1,"la1":30.2991,"la2":30.254,"lo1":-89.0895,"lo2":-89.0444,"dy":0.0017,"dx":0.0017,"nx":28,"ny":28,"refTime":"2026-01-29T09:00:00:Z","depth":0,"parameterNumber":3,"parameterNumberName":"V-component_of_WINDS"},"data":[0,0,0,0,0,0,0,0,0,0,0,0,0,0,0,0,0,0,0,0,0,0,0,0,0,0,0,0,0,0,0,0,0,0,0,0,0,0,0,0,0,0,0,0,0,0,0,0,0,0,0,0,0,0,0,0,0,0,3.2307,3.2308,0,3.2362,3.2362,3.2363,3.2333,3.2332,3.233,3.2329,3.238,3.2383,3.2386,0,0,0,0,0,0,0,0,0,0,0,0,0,3.2173,3.2176,3.2307,3.2308,3.2309,3.2362,3.2362,3.2363,3.2334,3.2332,3.233,3.2328,3.2379,3.2383,3.2386,0,0,0,0,0,0,0,0,0,0,0,0,0,3.223,3.2177,3.2307,3.2301,3.23,3.2362,3.2362,3.2363,3.2334,3.2332,3.233,3.2328,3.2378,3.2382,3.2386,3.2456,0,0,3.2399,3.2401,0,0,0,0,0,0,0,0,3.2227,3.2235,3.2301,3.2301,3.2301,3.2339,3.2334,3.2394,3.2335,3.2321,3.2329,3.2326,3.2368,3.2373,3.2388,3.2458,3.246,3.2399,3.2402,3.2403,3.2405,0,0,0,0,0,0,0,3.2223,3.2232,3.2329,3.2302,3.2302,3.2293,3.2299,3.2345,3.2356,3.2322,3.232,3.2327,3.2367,3.2384,3.2389,3.2461,3.2399,3.2403,3.2405,3.2407,3.259,3.2592,0,0,0,0,0,0,3.222,3.2229,3.2327,3.233,3.2258,3.2297,3.2304,3.2329,3.2356,3.2358,3.2329,3.2326,3.2378,3.2384,3.239,3.2472,3.2403,3.2407,3.241,3.2587,3.259,3.2593,0,0,0,0,0,0,3.2217,3.2229,3.2325,3.2279,3.2291,3.2302,3.233,3.2331,3.2347,3.2361,3.2362,3.2344,3.2376,3.2384,3.244,3.2473,3.2409,3.2413,3.2584,3.2588,3.2592,3.2637,0,0,0,0,0,0,3.2213,3.2228,3.2256,3.228,3.2293,3.2375,3.2333,3.2334,3.2355,3.2351,3.2375,3.2377,3.2375,3.2434,3.2444,3.2478,3.2416,3.2581,3.2586,3.259,3.2632,3.2642,3.2649,0,0,0,0,0,3.2209,3.2266,3.2257,3.2269,3.2328,3.2377,3.2384,3.2382,3.2358,3.2385,3.2393,3.2376,3.2469,3.244,3.2451,3.2486,3.2579,3.2585,3.259,3.2628,3.264,3.2649,0,0,0,0,0,0,3.2243,3.2269,3.226,3.2326,3.235,3.2372,3.2406,3.2395,3.2424,3.2419,3.2414,3.242,3.2477,3.2487,3.2455,3.2554,3.252,3.2528,3.2545,3.2556,3.2564,3.256,3.2419,0,0,0,0,0,3.2259,3.2298,3.2317,3.2374,3.2386,3.2394,3.2415,3.2412,3.2435,3.2445,3.2457,3.2479,3.2513,3.2535,3.2568,3.2634,3.2638,3.2664,3.2673,3.268,3.2686,3.2721,3.2732,3.2611,3.2611,3.261,0,0,3.2291,3.2309,3.2334,3.2381,3.2399,3.2438,3.2403,3.2445,3.2473,3.2451,3.2503,3.2514,3.2538,3.2599,3.2626,3.2609,3.2721,3.2687,3.2692,3.2695,3.2727,3.2739,3.2749,3.2614,3.2614,3.2613,0,0,3.2368,3.2388,3.2436,3.2455,3.2483,3.2488,3.25,3.2524,3.253,3.2584,3.2567,3.26,3.2659,3.2676,3.2693,3.2778,3.2762,3.2788,3.2832,3.2866,3.2875,3.2884,3.2912,3.2923,3.2795,3.2795,3.2795,0,3.2404,3.2463,3.2462,3.2506,3.2527,3.251,3.2559,3.2577,3.2613,3.2627,3.2608,3.2681,3.2696,3.276,3.2781,3.2796,3.2808,3.2785,3.2875,3.2883,3.2891,3.2918,3.2929,3.2798,3.2798,3.2797,3.2797,0,3.2504,3.2546,3.2582,3.2619,3.2643,3.2689,3.2694,3.2719,3.2714,3.272,3.2774,3.2792,3.2827,3.2843,3.2837,3.2906,3.2894,3.2875,3.284,3.2905,3.293,3.2941,3.2802,3.2801,3.28,3.2799,0,0,3.2604,3.2641,3.2654,3.267,3.27,3.273,3.2775,3.2811,3.2831,3.2857,3.2893,3.2944,3.2926,3.2945,3.2942,3.2972,3.3036,3.2949,3.295,3.2963,3.311,3.3123,3.3135,3.3027,3.3029,3.3031,3.3108,0,3.2682,3.2762,3.2763,3.2835,3.2872,3.2857,3.2895,3.2917,3.2924,3.2956,3.2963,3.2998,3.2974,3.2985,3.3014,3.3022,3.3065,3.3017,3.3058,3.306,3.3051,3.3149,3.3162,3.3234,3.3118,3.312,3.3121,0,3.2784,3.2814,3.289,3.2914,3.293,3.2965,3.2997,3.3028,3.3052,3.3055,3.3076,3.3069,3.3112,3.3078,3.3137,3.3104,3.3121,3.3128,3.313,3.3132,3.3093,3.3151,3.3257,3.3267,3.3137,3.3135,3.3134,0,3.2846,3.2906,3.2959,3.2974,3.3004,3.3028,3.3042,3.3063,3.3084,3.3112,3.3126,3.3158,3.3175,3.32,3.32,3.3175,3.3259,3.3225,3.3261,3.3261,3.3278,3.3276,3.3386,3.3293,3.3292,3.3292,3.3292,0,3.2932,3.2979,3.2988,3.302,3.3072,3.3072,3.3123,3.3133,3.3153,3.3186,3.3175,3.3206,3.3206,3.3237,3.3238,3.3286,3.3294,3.3296,3.3295,3.3296,3.3296,3.3306,3.33,3.3295,3.3294,3.3294,3.3293,0,3.301,3.3018,3.3074,3.3099,3.3106,3.3142,3.3162,3.3192,3.3199,3.3241,3.3251,3.3261,3.3297,3.3301,3.3342,3.3343,3.34,3.3395,3.3392,3.339,3.3426,3.3422,3.3544,3.3559,3.3458,3.3459,3.346,0,3.3063,3.3099,3.3127,3.3149,3.3164,3.32,3.3222,3.3223,3.3246,3.3276,3.3302,3.3338,3.3366,3.3424,3.3434,3.3465,3.3459,3.35,3.3464,3.3463,3.3457,3.3455,3.3457,3.3506,3.3507,3.3508,3.3509,0,3.3156,3.3159,3.3191,3.3226,3.3252,3.3279,3.3304,3.3322,3.3326,3.3352,3.339,3.3412,3.3455,3.349,3.3521,3.3532,3.3521,3.3521,3.3531,3.353,3.3527,3.3527,3.3409,3.3517,3.3517,3.3516,3.3516,3.3515,3.3222,3.3253,3.3277,3.3314,3.3333,3.3357,3.3386,3.3397,3.3429,3.3465,3.3464,3.3504,3.3526,3.3567,3.3582,3.3612,3.3598,3.3613,3.3616,3.3619,3.3622,3.3524,3.3618,3.3618,3.3618,3.3618,3.3617,0,3.3313,3.3328,3.3362,3.3398,3.3426,3.3415,3.3442,3.3466,3.3503,3.3525,3.3553,3.3596,3.3629,3.3642,3.3675,3.3697,3.3692,3.3705,3.3702,3.3705,3.3633,3.3621,3.3708,3.3708,3.3708,3.3708,3.3708,3.3708,3.3363,3.3414,3.342,3.3479,3.3494,3.3535,3.3551,3.3572,3.359,3.3638,3.3667,3.3676,3.3694,3.3727,3.3757,3.376,3.3771,3.3786,3.3786,3.3719,3.371,3.3701,3.3689,3.3789,3.3789,3.3855,3.3855,3.3856]}]]